{"data":{"norad_id":58246,"intl_designator":"2023-171S","name":"STARLINK-30886","alt_names":[],"object_type":"PAYLOAD","status":"ACTIVE","operator":null,"country":"US","launch_date":"2023-11-08","launch_site_code":"AFETR","launch_vehicle":null,"mission":null,"orbit_class":"UNKNOWN","rcs_meters":null,"size_class":null,"mass_kg":null,"dimensions":null,"purposes":["comms"],"wikipedia_slug":null,"has_3d_model":false,"image_url":null,"decayed_at":null,"tle_current":{"epoch":"2026-05-25T04:17:20.950080Z","epoch_age_seconds":63115,"freshness":"FRESH","line1":"1 58246U 23171S   26145.17871470  .00000365  00000+0  22801-4 0  9992","line2":"2 58246  43.0044 213.1677 0001998 290.6944  69.3693 15.27574742141433","mean_motion":15.27574742,"eccentricity":0.0001998,"inclination_deg":43.0044,"raan_deg":213.1677,"arg_perigee_deg":290.6944,"mean_anomaly_deg":69.3693,"bstar":2.2801e-5,"rev_number":14143,"period_min":94.267073185215,"perigee_km":481.69397230065,"apogee_km":484.43570855609,"semimajor_km":6861.2018404284,"source":"CELESTRAK","updated_at":"2026-05-25T13:38:18.582588Z"}}}